[[{"header":{"parameterUnit":"m.s-1","parameterCategory":1,"la1":30.2992,"la2":30.254,"lo1":-89.0895,"lo2":-89.0443,"dy":0.0025,"dx":0.0025,"nx":19,"ny":19,"refTime":"2026-03-09T21:00:00:Z","depth":0,"parameterNumber":2,"parameterNumberName":"U-component_of_WINDS"},"data":[0,0,0,-1.4841,-1.4843,-1.4938,-1.4938,-1.5054,-1.5055,0,0,0,0,0,0,0,0,0,0,0,-1.4807,-1.4808,-1.4841,-1.4843,-1.4938,-1.4938,-1.5054,-1.5055,0,0,0,0,0,0,0,0,0,0,0,-1.4807,-1.4808,-1.4808,-1.4843,-1.4937,-1.4938,-1.5053,-1.4984,0,0,0,0,0,0,0,0,0,0,-1.4893,-1.4857,-1.4808,-1.4808,-1.4844,-1.4937,-1.4938,-1.4981,-1.4989,-1.5008,0,-1.5022,0,-1.504,-1.5062,-1.5062,0,0,0,-1.4847,-1.485,-1.488,-1.4809,-1.4844,-1.4937,-1.4896,-1.4985,-1.4994,-1.5018,-1.5023,-1.5028,-1.5042,-1.5063,-1.5063,-1.5153,-1.5153,0,0,-1.4842,-1.4822,-1.4875,-1.4886,-1.4868,-1.4893,-1.4899,-1.4991,-1.4996,-1.5024,-1.5031,-1.5044,-1.5063,-1.5064,-1.5153,-1.5153,0,0,0,-1.4824,-1.4818,-1.4846,-1.4881,-1.4898,-1.4896,-1.4903,-1.4992,-1.5003,-1.5032,-1.5045,-1.5064,-1.5065,-1.5153,-1.5153,-1.5142,0,0,0,-1.4821,-1.4807,-1.4844,-1.4832,-1.4896,-1.4946,-1.4902,-1.4997,-1.5008,-1.5044,-1.5064,-1.5066,-1.5153,-1.5153,-1.5141,-1.5139,0,0,0,-1.4803,-1.4805,-1.4817,-1.4831,-1.4871,-1.4945,-1.4961,-1.4999,-1.5015,-1.5062,-1.5067,-1.5153,-1.5153,-1.5141,-1.5139,-1.5156,0,0,0,-1.4778,-1.4807,-1.4816,-1.4854,-1.487,-1.4937,-1.4961,-1.5012,-1.5051,-1.5065,-1.5153,-1.5153,-1.5141,-1.5139,-1.5156,-1.5166,-1.5168,0,0,-1.4803,-1.4809,-1.4833,-1.4844,-1.4903,-1.4924,-1.4983,-1.5039,-1.5064,-1.5123,-1.5125,-1.5141,-1.5139,-1.5156,-1.519,-1.5192,0,0,0,-1.4834,-1.485,-1.4871,-1.4906,-1.4948,-1.4985,-1.5034,-1.5055,-1.5106,-1.5089,-1.5154,-1.5153,-1.5164,-1.5169,-1.5171,-1.5181,-1.5155,-1.5155,-1.5155,-1.4839,-1.4867,-1.4908,-1.4948,-1.4982,-1.5032,-1.5063,-1.51,-1.512,-1.5135,-1.5152,-1.5169,-1.5175,-1.5176,-1.5186,-1.5161,-1.5161,-1.5161,-1.5161,-1.4877,-1.4904,-1.4929,-1.4977,-1.5008,-1.505,-1.51,-1.5113,-1.5157,-1.5159,-1.517,-1.5167,-1.5177,-1.5188,-1.516,-1.516,-1.516,-1.5161,-1.5161,-1.4882,-1.49,-1.4924,-1.4978,-1.5017,-1.5057,-1.5098,-1.5125,-1.5152,-1.5163,-1.5183,-1.5184,-1.5187,-1.5171,-1.5171,-1.5171,-1.5171,-1.5171,-1.5171,-1.4877,-1.4905,-1.4935,-1.4982,-1.5008,-1.5047,-1.5098,-1.5125,-1.5163,-1.518,-1.518,-1.5198,-1.5173,-1.5165,-1.5172,-1.5172,-1.5172,-1.5172,-1.5172,-1.4903,-1.4901,-1.4947,-1.4973,-1.5031,-1.5068,-1.5103,-1.5156,-1.5183,-1.5202,-1.5219,-1.5196,-1.5204,-1.5204,-1.5197,-1.5213,-1.5213,-1.5213,-1.5213,-1.4906,-1.4913,-1.4966,-1.5006,-1.5048,-1.5084,-1.5136,-1.5177,-1.522,-1.5239,-1.5241,-1.5236,-1.5234,-1.5244,-1.5242,-1.5236,-1.5261,-1.5262,-1.5262,-1.4923,-1.4936,-1.4973,-1.5013,-1.5061,-1.5102,-1.5152,-1.5198,-1.5247,-1.5264,-1.5254,-1.5252,-1.5244,-1.524,-1.5254,-1.5251,-1.5242,0,0]},{"header":{"parameterUnit":"m.s-1","parameterCategory":1,"la1":30.2992,"la2":30.254,"lo1":-89.0895,"lo2":-89.0443,"dy":0.0025,"dx":0.0025,"nx":19,"ny":19,"refTime":"2026-03-09T21:00:00:Z","depth":0,"parameterNumber":3,"parameterNumberName":"V-component_of_WINDS"},"data":[0,0,0,1.8198,1.8198,1.8195,1.8195,1.8196,1.8196,0,0,0,0,0,0,0,0,0,0,0,1.8199,1.8199,1.8198,1.8198,1.8195,1.8195,1.8196,1.8196,0,0,0,0,0,0,0,0,0,0,0,1.8199,1.8199,1.8199,1.8198,1.8195,1.8195,1.8196,1.8197,0,0,0,0,0,0,0,0,0,0,1.82,1.8199,1.8199,1.8199,1.8198,1.8195,1.8195,1.8197,1.8197,1.8198,0,1.8197,0,1.8197,1.8196,1.8196,0,0,0,1.8199,1.82,1.8199,1.8199,1.8198,1.8195,1.8197,1.8197,1.8197,1.8198,1.8197,1.8197,1.8197,1.8196,1.8196,1.8199,1.8199,0,0,1.8199,1.8199,1.8199,1.8199,1.8197,1.8197,1.8197,1.8197,1.8197,1.8197,1.8197,1.8197,1.8196,1.8196,1.8199,1.8199,0,0,0,1.8199,1.8199,1.8198,1.8199,1.8198,1.8197,1.8197,1.8197,1.8196,1.8197,1.8197,1.8196,1.8196,1.8199,1.8199,1.8199,0,0,0,1.8199,1.8199,1.8198,1.8198,1.8198,1.8197,1.8196,1.8196,1.8196,1.8197,1.8196,1.8196,1.8199,1.8199,1.8199,1.8199,0,0,0,1.82,1.8199,1.8199,1.8198,1.8197,1.8197,1.8196,1.8196,1.8196,1.8196,1.8196,1.8199,1.8199,1.8199,1.8199,1.8201,0,0,0,1.82,1.8198,1.8199,1.8197,1.8197,1.8196,1.8196,1.8196,1.8196,1.8196,1.8199,1.8199,1.8199,1.8199,1.8201,1.8202,1.8203,0,0,1.8197,1.8197,1.8196,1.8197,1.8196,1.8197,1.8197,1.8197,1.8197,1.8199,1.8199,1.8199,1.8199,1.8201,1.8206,1.8206,0,0,0,1.8196,1.8195,1.8195,1.8194,1.8195,1.8196,1.8196,1.8198,1.8199,1.8198,1.82,1.82,1.8202,1.8202,1.8203,1.8205,1.82,1.82,1.82,1.819,1.8192,1.8191,1.8193,1.8194,1.8196,1.8197,1.82,1.82,1.8201,1.8201,1.8204,1.8205,1.8205,1.8207,1.8202,1.8202,1.8202,1.8202,1.8187,1.8187,1.819,1.819,1.8193,1.8195,1.8199,1.82,1.8203,1.8203,1.8204,1.8203,1.8205,1.8207,1.8202,1.8202,1.8202,1.8202,1.8202,1.8183,1.8184,1.8185,1.8188,1.8191,1.8194,1.8198,1.8201,1.8203,1.8205,1.8207,1.8207,1.8208,1.8206,1.8206,1.8206,1.8206,1.8206,1.8206,1.8179,1.8181,1.8182,1.8186,1.8188,1.8192,1.8197,1.82,1.8205,1.8207,1.8207,1.8209,1.8205,1.8204,1.8206,1.8206,1.8206,1.8206,1.8206,1.8174,1.8176,1.8179,1.8181,1.8187,1.8192,1.8196,1.8204,1.8207,1.821,1.8213,1.8209,1.821,1.8209,1.8209,1.8211,1.8211,1.8211,1.8211,1.8171,1.8172,1.8177,1.8181,1.8186,1.8192,1.8199,1.8206,1.8213,1.8216,1.8217,1.8216,1.8216,1.8217,1.8216,1.8216,1.822,1.822,1.822,1.8169,1.8171,1.8174,1.818,1.8187,1.8193,1.8201,1.8209,1.8218,1.8221,1.8219,1.8219,1.8218,1.8218,1.8219,1.8218,1.8217,0,0]}]]